Location: *
(39.6105°S, 69.1863°E)
Time: 04:01:35
(UTC+00:00)

Daily predictions for brighter satellites

Satellite Brightness Start Highest point End
(mag) Time Altitude Azimuth Time Altitude Azimuth Time Altitude Azimuth
USA 267 4.0 00:01:58 10° ENE 00:08:07 44° SSE 00:10:57 29° SSW
GEOS 3 Rocket 3.9 00:04:12 10° SSE 00:08:10 53° S 00:08:10 53° S
Okean O Rocket 2.4 00:06:55 10° NNE 00:11:08 48° ESE 00:12:43 33° SSE
Cosmos 1535 Rocket 4.3 00:12:58 45° SSW 00:14:58 74° W 00:21:07 10° N
Cosmos 2150 Rocket 4.3 00:10:29 10° N 00:15:39 68° ENE 00:20:59 10° SSE
Cosmos 2285 Rocket 4.4 00:16:58 44° SSW 00:16:58 44° SSW 00:21:52 10° S
STARLINK-1099 4.3 00:17:07 51° SE 00:17:07 51° SE 00:20:20 10° SE
MOS 1-B 4.2 00:11:35 10° N 00:17:24 73° WNW 00:18:57 50° SW
H-2A R/B 3.5 00:15:30 10° NNE 00:19:05 48° ESE 00:19:29 46° SE
Cosmos 1805 Rocket 4.2 00:21:58 44° N 00:21:58 44° N 00:25:04 10° N
DELTA 2 R/B (1) 3.5 00:20:14 63° WNW 00:20:51 69° NNW 00:26:28 10° ENE
STARLINK-1104 4.1 00:21:53 56° SE 00:21:53 56° SE 00:25:17 10° SE
Abrixas rocket 4.4 00:23:50 20° NE 00:23:50 20° NE 00:26:03 10° E
NOAA 6 3.9 00:19:13 10° NNE 00:24:25 86° WNW 00:26:42 35° SSW
STARLINK-1144 3.9 00:26:40 61° SSE 00:26:40 61° SSE 00:30:17 10° SE
Cosmos 1689 Rocket 4.5 00:30:00 17° NNE 00:30:00 17° NNE 00:30:54 10° N
Cosmos 2237 Rocket 3.5 00:31:05 23° NW 00:31:05 23° NW 00:33:42 10° NNW
STARLINK-1146 3.7 00:29:49 61° ENE 00:29:49 61° ENE 00:32:52 10° NE
Cosmos 1339 Rocket 4.4 00:23:07 10° NNW 00:29:23 73° W 00:35:51 10° S
STARLINK-1147 3.6 00:31:29 65° ENE 00:31:29 65° ENE 00:34:36 10° NE
STARLINK-1103 3.7 00:31:27 63° S 00:31:27 63° S 00:35:14 10° SE
STARLINK-1173 3.5 00:31:24 73° NE 00:31:24 73° NE 00:34:51 10° NE
Cosmos 2297 Rocket 3.7 00:34:51 20° SSW 00:34:51 20° SSW 00:37:11 10° S
STARLINK-1185 3.4 00:34:53 73° NE 00:34:53 73° NE 00:38:10 10° NE
Cosmos 1934 Rocket 4.1 00:32:24 35° SW 00:34:39 50° W 00:40:38 10° NNW
STARLINK-1101 3.7 00:36:14 61° SSW 00:36:14 61° SSW 00:40:12 10° SE
STARLINK-1186 3.3 00:36:37 77° NE 00:36:37 77° NE 00:39:59 10° NE
CZ-4B DEB 4.3 00:31:11 10° N 00:36:31 51° W 00:37:38 44° WSW
Cosmos 1328 Rocket 4.1 00:32:26 10° N 00:36:42 58° E 00:41:01 10° SSE
Cosmos 2082 3.9 00:37:46 45° W 00:38:22 47° WSW 00:43:51 10° SSE
Cosmos 2298 Rocket 3.9 00:33:24 10° NNW 00:38:43 68° WSW 00:44:07 10° SSE
STARLINK-1136 3.2 00:39:57 76° NW 00:39:57 76° NW 00:43:44 10° NE
STARLINK-1196 3.2 00:40:25 80° NNW 00:40:25 80° NNW 00:43:55 10° NE
SJ-7 4.4 00:36:15 10° N 00:40:23 62° W 00:40:32 61° W
STARLINK-1102 3.7 00:41:03 57° SW 00:41:03 57° SW 00:45:11 10° SE
Cosmos 2263 Rocket 3.4 00:37:48 10° N 00:43:01 42° ENE 00:48:17 10° SE
PAYLOAD B 4.3 00:37:41 10° N 00:43:08 53° W 00:45:55 28° SW
SL-16 R/B 2.1 00:41:34 30° SW 00:44:24 69° WNW 00:50:01 10° NNE
Cosmos 1605 Rocket 3.9 00:38:40 10° SSW 00:44:46 65° W 00:50:51 10° N
STARLINK-1111 3.7 00:45:49 52° SW 00:46:00 53° SW 00:50:08 10° SE
STARLINK-1181 3.1 00:46:23 69° WNW 00:46:32 70° NW 00:50:08 10° NE
Cosmos 1606 2.7 00:43:09 10° N 00:47:00 85° E 00:50:58 10° S
BREEZE-M DEB (TANK) 4.3 00:38:17 23° WSW 00:47:10 85° SSE 00:51:07 10° ENE
STARLINK-1183 3.2 00:48:14 65° WNW 00:48:27 67° NW 00:52:03 10° NE
SL-24 R/B 3.9 00:44:41 10° S 00:48:59 71° WSW 00:53:20 10° NNW
STARLINK-1073 3.8 00:50:35 47° SW 00:50:58 48° SW 00:55:05 10° SE
Crew Dragon 3.4 00:53:53 11° SSE 00:53:53 11° SSE 00:54:13 10° SSE
Lacrosse 4 Rocket 1.1 00:50:01 10° NNW 00:53:59 80° WSW 00:58:05 10° SSE
YAOGAN 6 3.3 00:51:24 10° NNE 00:55:00 56° ESE 00:58:43 10° S
ISS -1.6 00:56:13 16° S 00:56:13 16° S 00:57:48 10° SSE
STARLINK-1121 4.0 00:55:23 41° WSW 00:55:59 45° SW 01:00:04 10° SE
Cosmos 1125 Rocket 3.4 00:51:02 10° NNW 00:56:18 85° WSW 01:01:41 10° SSE
STARLINK-1194 3.4 00:56:05 49° W 00:56:35 55° NW 01:00:09 10° NE
STARLINK-1193 3.5 00:57:59 46° W 00:58:35 52° NW 01:02:07 10° NNE
Envisat 3.0 00:53:51 10° NNE 00:58:58 87° ESE 01:04:09 10° SSW
STARLINK-1184 3.6 00:59:53 43° W 01:00:33 50° NW 01:04:04 10° NNE
STARLINK-1106 4.1 01:00:09 37° WSW 01:00:58 41° SSW 01:05:00 10° SE
Geosat 4.1 00:56:59 10° NNE 01:02:01 78° ESE 01:07:05 10° SSW
STARLINK-1127 3.6 01:01:48 40° W 01:02:33 48° NW 01:06:03 10° NNE
Cosmos 1727 Rocket 4.0 00:58:04 10° NNW 01:04:13 63° W 01:10:30 10° S
STARLINK-1142 3.7 01:03:44 38° W 01:04:34 46° NW 01:08:04 10° NNE
BREEZE-M DEB (TANK) 2.5 00:59:22 13° WNW 01:04:34 81° NNE 01:07:34 10° ESE
STARLINK-1112 4.2 01:04:56 33° WSW 01:05:59 38° SSW 01:09:57 10° SE
STARLINK-1137 3.8 01:05:43 36° W 01:06:37 43° NW 01:10:05 10° NNE
Cosmos 1441 Rocket 3.3 01:03:35 10° S 01:07:25 77° ESE 01:11:11 10° NNE
Sich 1 3.9 01:07:44 28° WSW 01:08:26 30° W 01:12:19 10° NNW
STARLINK-1195 3.8 01:07:42 33° W 01:08:41 41° NW 01:12:08 10° NNE
Timation 1 Rocket 4.3 01:02:50 10° NNW 01:08:49 88° WSW 01:14:54 10° SSE
Cosmos 2227 Rocket 3.7 01:09:48 17° SW 01:09:48 17° SW 01:12:34 10° S
ATLAS 3B R/B 3.9 01:06:56 22° WSW 01:09:14 25° SW 01:15:15 10° SSE
STARLINK-1161 4.4 01:07:47 21° SSW 01:10:19 46° SE 01:14:22 10° ENE
STARLINK-1152 3.9 01:09:44 31° W 01:10:47 40° NW 01:14:13 10° NNE
STARLINK-1128 4.3 01:09:45 29° WSW 01:11:00 36° SSW 01:14:55 10° SE
CENTAUR R/B 4.3 01:11:38 14° SW 01:12:46 15° SSW 01:16:29 10° S
BREEZE-M DEB (TANK) 4.5 01:11:08 15° SSW 01:12:48 21° SSE 01:17:12 10° ESE
Cosmos 1943 4.2 01:08:45 10° SSW 01:14:16 47° ESE 01:19:43 10° NE
Cosmos 1603 4.3 01:08:41 10° SSW 01:14:19 57° ESE 01:19:51 10° NE
Cosmos 44 3.8 01:09:59 11° SSW 01:14:48 57° SE 01:19:27 10° NE
STARLINK-1160 4.3 01:12:33 20° SW 01:15:18 50° SE 01:19:23 10° ENE
STARLINK-1113 4.4 01:14:31 26° WSW 01:16:00 33° SSW 01:19:52 10° SE
CZ-4B R/B 3.7 01:11:14 10° NNW 01:16:05 36° W 01:20:55 10° SSW
Helios 1A Rocket 2.9 01:14:52 10° N 01:18:57 67° WNW 01:23:05 10° SSW
USA 215 4.1 01:13:58 10° SE 01:19:39 32° SSW 01:23:45 17° WSW
CORIOLIS 4.2 01:14:48 10° N 01:20:12 67° WNW 01:25:43 10° SSW
STARLINK-1170 4.1 01:17:22 18° SW 01:20:19 55° SE 01:24:26 10° ENE
Cosmos 1515 Rocket 3.4 01:16:06 10° NNW 01:20:28 76° W 01:24:54 10° S
Cosmos 2100 Rocket 4.0 01:15:07 10° S 01:21:23 84° W 01:27:37 10° N
Lacrosse 5 4.1 01:23:06 10° SSW 01:24:28 11° S 01:25:51 10° SSE
STARLINK-1228 4.1 01:21:22 10° NNW 01:24:43 49° NE 01:28:08 10° ESE
STARLINK-1150 4.0 01:22:10 17° SW 01:25:19 60° SE 01:29:28 10° ENE
Meteor 1-25 Rocket 4.2 01:20:19 10° S 01:26:05 83° W 01:31:53 10° N
NOAA 12 4.2 01:21:51 10° N 01:27:09 62° W 01:32:30 10° SSW
SKYMED 2 3.8 01:23:41 10° SSE 01:28:07 75° ENE 01:32:29 10° N
CZ-4 R/B 2.7 01:25:30 10° NE 01:29:07 39° ESE 01:32:47 10° S
YAOGAN 1 4.2 01:25:45 10° NE 01:29:41 35° ESE 01:33:42 10° S
STARLINK-1151 3.9 01:26:56 15° SW 01:30:18 66° SE 01:34:28 10° ENE
BREEZE-M DEB (TANK) 1.8 01:30:51 18° W 01:32:27 51° SSW 01:35:57 10° SE
Cosmos 2228 Rocket 3.3 01:28:41 10° N 01:33:17 81° E 01:37:59 10° S
Cosmos 1933 Rocket 3.5 01:29:51 10° S 01:34:22 77° W 01:38:51 10° N
STARLINK-1133 3.8 01:31:43 14° SW 01:35:17 72° SE 01:39:28 10° ENE
Cosmos 1633 Rocket 4.0 01:32:54 10° SSW 01:36:40 27° W 01:40:21 10° NW
Cosmos 2061 Rocket 4.1 01:31:12 10° S 01:37:31 83° E 01:43:48 10° N
Gbstr 26 Del rocket 3.0 01:36:01 13° SW 01:39:18 61° SE 01:43:18 10° ENE
STARLINK-1139 3.7 01:36:30 13° SW 01:40:15 79° SE 01:44:27 10° NE
IRS-1C Rocket 4.2 01:35:08 10° N 01:40:21 58° W 01:45:39 10° SSW
PSLV R/B 4.4 01:37:08 10° S 01:41:01 38° WSW 01:44:50 10° NW
Cosmos 1375 Rocket 4.5 01:35:06 10° NNW 01:41:29 86° WSW 01:47:51 10° SSE
Cosmos 1933 4.3 01:39:13 10° NW 01:42:37 25° WSW 01:46:03 10° SSW
STARLINK-1174 3.7 01:41:17 12° SW 01:45:15 86° SE 01:49:26 10° NE
Okean O Rocket 3.3 01:45:22 10° NW 01:47:44 14° W 01:50:08 10° WSW
Cosmos 1151 Rocket 4.3 01:45:11 10° NW 01:48:34 21° WSW 01:51:57 10° SSW
Cosmos 2016 Rocket 4.1 01:42:49 10° S 01:49:17 82° W 01:55:38 10° N
STARLINK-1149 3.7 01:46:02 10° SW 01:50:11 87° NW 01:54:23 10° NE
Cosmos 2173 Rocket 4.1 01:44:54 10° SSW 01:50:50 52° W 01:56:44 10° NNW
USA 267 3.5 01:44:31 10° NNE 01:50:57 58° NW 01:57:27 10° SW
FengYun 1-2 T 4.3 01:46:45 10° N 01:52:12 58° W 01:57:42 10° SSW
Cosmos 1238 Rocket 4.2 01:51:17 11° WSW 01:52:42 13° W 01:54:23 10° WNW
ADEOS Rocket 3.3 01:45:39 10° S 01:52:59 75° WSW 01:59:29 10° NNW
SMAP 4.3 01:49:20 10° NNW 01:53:02 23° W 01:56:46 10° SW
Cosmos 405 4.3 01:51:35 10° NNE 01:55:01 45° E 01:58:30 10° SSE
STARLINK-1180 3.7 01:50:58 10° SW 01:55:12 79° NW 01:59:23 10° NE
SL-8 R/B 3.7 01:51:42 10° WNW 01:56:32 68° SSW 02:01:24 10° SE
Cosmos 1459 Rocket 4.4 01:52:24 10° SSW 01:58:31 47° W 02:04:33 10° NNW
Abrixas rocket 2.3 01:56:15 10° WNW 01:59:07 44° SSW 02:01:59 10° SE
STARLINK-1153 3.7 01:55:58 10° SW 02:00:10 71° NW 02:04:20 10° NE
Hubble Space Telescope 3.3 01:59:09 10° NW 02:01:49 17° N 02:04:29 10° NE
Meteor 2-20 4.5 01:56:24 10° N 02:02:33 79° W 02:08:49 10° S
STARLINK-1132 3.8 02:00:57 10° SW 02:05:08 65° NW 02:09:16 10° NE
